Location: ??????????
(48.4699°N, 37.9573°E)
Time: 21:11:41
(UTC+00:00)

Okean O Rocket - Pass Details

Date: 20 January 2021
Orbit: 622 x 645 km, 98.2° (Epoch: 02 March)

Event Time Altitude Azimuth Distance (km) Brightness Sun altitude
Rises 14:55:42 0° 164° (SSE) 2,943 5.1 -7.9°
Reaches altitude 10° 14:57:54 10° 164° (SSE) 2,036 4.3 -8.3°
Maximum altitude 15:02:21 90° 159° (SSE) 649 1.7 -9.0°
Drops below altitude 10° 15:06:49 10° 346° (NNW) 2,042 4.2 -9.7°
Sets 15:09:01 0° 347° (NNW) 2,953 5.0 -10.0°
